Dewpoint
4 4 3 2 1 -3 -7 -17 -22 -21 -24 -27 -27 -23 -10 -2 2 3 4 -1 -6 -1 2 6 4 -5 -9 -1 -4 -6 -3 -3 -5 -6 -5 -9 -8 -7 -7 -9 -8 -7 -9 -7 -5 -5 -3
1 3 4 4 3 2 -1 -3 -10 -19 -18 -24 -27 -28 -25 -13 -5 -4 -3 -7 -8 -5 -0 4 6 -0 2 -1 -6 -8 -13 -4 -3 -2 -6 -9 -11 -8 -6 -7 -7 -7 -7 -4 -2 -4 -2
2 2 1 3 4 4 3 2 0 -7 -17 -21 -22 -26 -28 -30 -25 -21 -19 -14 -12 -7 -0 -1 4 5 2 -2 -4 -4 -6 -2 -3 -5 -8 -9 -5 -4 -5 -6 -7 -6 -4 -2 0 -2 -1
-0 -0 1 2 2 3 4 3 3 2 -1 -11 -14 -19 -26 -27 -31 -29 -27 -20 -8 0 -1 -1 1 3 2 -3 -5 -3 -2 -2 -3 -6 -6 -7 -5 -3 -4 -6 -6 -6 -5 -1 7 4 -1
1 1 -0 -1 1 1 2 3 3 3 2 -1 -5 -13 -21 -24 -27 -32 -31 -16 -6 -3 -3 -3 0 4 -0 -2 -5 -6 -3 -2 -3 -4 -4 -5 -4 -4 -5 -5 -6 -6 -3 0 2 1 -1
2 2 1 0 0 -1 -0 1 2 3 3 2 2 -2 -13 -22 -25 -28 -31 -15 -6 -8 -2 1 4 3 -0 -5 -7 -9 -5 -1 -2 -2 -3 -3 -4 -3 -5 -7 -4 -6 -3 -4 2 3 -3
-1 -5 2 2 1 1 0 -2 -1 2 3 3 2 2 -1 -16 -20 -26 -26 2 4 6 5 -2 -2 -6 -6 -6 -2 -6 -6 -0 -3 -2 -2 -4 -3 -3 -6 -6 -5 -5 -5 -5 1 2 -1
-1 -3 -6 -4 -1 0 1 0 -1 -3 2 3 2 2 2 1 -10 -21 -14 1 0 5 -1 -3 -1 -1 -1 -1 -2 -6 -2 -2 -3 -1 -4 -2 -1 -5 -5 -4 -4 -5 -4 -5 -6 -5 -3
-0 -0 -1 -2 -7 -8 -1 0 -0 -2 -1 1 3 2 2 2 -1 -14 -0 1 4 5 2 -6 -5 -4 -3 -3 -1 -5 -2 -3 -3 -2 -3 -2 -4 -4 -3 -3 -2 -3 -3 -4 -4 -3 -4
-1 -1 -1 -1 -0 -0 -4 -11 -2 -1 -2 -0 2 2 2 2 -2 -1 2 2 3 5 2 -10 -1 -2 -3 -3 -2 -5 -4 -4 -4 -2 -3 -3 -5 -3 -3 -2 -3 -1 -5 -5 -3 -3 -2
-1 -1 -0 -0 -1 -2 0 -1 -5 -2 -1 -2 -2 2 2 1 3 3 2 4 6 7 -6 -9 -4 -1 -3 -3 -9 -5 -5 -5 -4 -3 -4 -3 -4 -2 -1 -2 -3 -3 -3 -3 -3 -3 -2
-0 -0 -0 -0 -0 -0 -2 -1 -1 -7 -2 -1 -4 0 2 1 2 4 6 6 7 3 -5 -8 -1 0 1 -2 -8 -7 -5 -5 -6 -4 -5 -5 -5 -4 -4 -3 -3 -4 -2 -2 -1 -1 1
0 0 -0 -0 -0 0 -0 -1 -2 -1 -5 -1 -2 -3 2 3 1 3 6 7 1 -3 -12 -10 -2 -0 -0 -0 -3 -5 -4 -4 -4 -1 -1 -4 -3 -4 -4 -2 -2 -2 -1 3 6 3 3
0 0 0 -1 -0 0 0 0 -1 -2 -1 -3 -1 -5 0 2 1 3 5 6 -1 -10 -10 -6 -6 -0 0 -2 -2 -3 -3 -3 -4 -4 -2 -1 -1 -3 -4 -3 -2 -0 -1 3 7 6 3
1 1 0 0 -0 -0 0 0 0 -0 -1 -5 -1 -1 -1 2 1 3 3 6 -1 -9 -15 -11 -5 1 0 -3 -3 -3 -3 -4 -4 -5 -2 -3 -3 -6 -6 -5 -6 -3 1 -2 2 3 4
1 1 1 1 0 -0 0 1 1 0 -1 -1 0 1 0 1 2 3 3 4 -2 -10 -14 -10 -8 -2 0 -2 -3 -3 -2 -5 -5 -6 -6 -5 -2 -5 -5 -5 -4 -2 -1 2 1 6 6
1 1 1 2 1 1 0 1 1 1 -0 0 0 1 -1 1 1 3 3 1 -0 -9 -13 -12 -7 -7 -3 -0 -4 -3 -3 -5 -5 -5 -6 -5 -3 -2 -1 -0 -1 -0 1 0 -0 1 6
1 1 0 1 1 1 1 1 1 1 1 1 1 2 -1 -0 2 2 2 -1 -2 -3 -7 -8 -4 -1 -8 -3 -2 -3 -3 -4 -5 -5 -3 -4 -3 1 0 -4 -5 -2 -1 -0 3 4 3
1 1 1 -2 2 2 2 1 1 1 1 1 1 1 0 1 2 3 -1 -2 -6 -3 -5 -6 -2 -2 -2 -0 1 -2 -3 -4 -5 -3 -3 -3 -2 1 -0 -1 -2 -2 -1 -1 -0 1 5
-3 -3 -2 -3 -1 2 2 1 1 1 2 1 1 1 2 2 0 -0 -2 -3 -5 -3 -3 -6 -3 -3 -2 1 0 0 -2 -2 -3 -3 -4 -2 -3 -1 2 -1 -3 -1 -2 -2 -1 4 2
-3 -3 -2 -3 -3 -2 0 2 1 1 1 1 0 2 1 2 2 -0 -3 -6 -6 -4 -3 -3 -3 -2 -1 1 1 2 -0 0 -1 -2 -2 -1 -1 -2 -4 -5 -5 -5 -3 -3 -2 -2 0
-2 -2 -2 -1 -1 -2 -3 -0 0 1 1 1 -0 -1 -1 -1 0 -0 -2 -4 -7 -6 -6 -3 -1 -1 -3 -2 -1 2 1 1 0 -0 -0 -2 1 -2 -2 -4 -5 -5 -7 -7 -6 -6 -5
-1 -1 -0 -0 0 -0 -1 -2 -1 -0 1 1 -0 -2 -3 -2 1 0 -0 -3 -6 -7 -7 -8 -4 -2 -1 -3 1 2 1 1 1 2 1 -0 1 1 3 -3 -3 2 -4 -5 -6 -6 -5
-0 -1 1 1 -0 -0 -0 -1 -2 -2 1 1 -1 -3 -0 -0 2 -1 -3 -5 -6 -8 -5 -7 -7 -3 -2 -1 1 0 2 -0 2 1 -0 3 2 2 5 6 8 -1 -5 -5 -4 -5 -6
-1 -2 -1 1 0 -0 -0 -0 -1 -2 -2 0 -0 -2 -2 2 -1 -3 -4 -4 -6 -7 -4 -7 -6 -6 -1 0 1 0 -0 2 0 1 0 1 4 6 8 5 0 -3 -3 -2 -3 -4 -6
-1 0 -1 -2 -0 0 -0 -0 -0 -1 -1 -0 0 -2 -2 -0 -2 -5 -4 -5 -4 -4 -3 -4 -7 -4 -1 1 1 -1 -5 -6 -5 1 -1 1 2 7 6 6 6 -0 -4 -5 -4 2 -5
0 -0 0 -1 -1 -1 0 -0 -1 -0 -0 -0 1 -1 -2 -2 -5 -4 -1 -3 -5 -5 -3 -4 -5 -0 -0 4 5 3 -3 -9 -4 -1 7 6 6 9 8 6 2 -4 -5 -6 3 2 -5
0 -1 -1 -2 -1 -1 -2 0 -1 -0 -1 0 1 -1 -1 -2 -3 -3 -2 -1 -5 -5 -1 -3 -2 1 3 5 4 0 2 -2 -2 -2 3 7 6 9 7 8 8 -2 -2 -0 -1 -3 -3
-1 -2 -2 -1 -1 -0 1 -1 -0 -1 0 0 1 -1 -1 0 1 1 3 2 1 -4 -6 -4 -1 -1 -1 1 2 1 5 7 0 4 -4 5 4 6 3 3 0 -0 -1 -2 -3 -3 -1
Wind_Speed
19 20 21 21 21 22 22 23 22 21 20 19 18 19 22 25 24 24 25 24 22 20 21 20 20 18 17 9 13 13 12 9 9 10 11 12 14 14 13 6 6 12 12 9 12 7 9
26 22 20 21 22 22 23 22 23 24 23 21 20 19 19 19 21 24 26 26 24 21 20 21 20 18 12 18 8 12 13 11 10 12 11 14 13 10 13 11 10 8 11 12 7 13 8
25 25 27 22 19 22 23 21 22 24 24 23 22 21 20 20 19 21 21 23 21 20 20 21 19 20 15 26 7 7 10 10 11 12 12 12 10 11 6 10 10 13 17 13 6 9 9
24 24 27 25 27 22 21 23 23 22 22 23 23 22 22 20 20 19 19 19 17 18 19 20 19 14 13 12 9 12 13 11 10 12 12 10 10 12 13 10 12 15 18 10 8 29 5
26 27 25 24 25 30 28 21 23 24 23 22 23 23 23 21 19 18 19 18 15 17 18 18 15 7 16 14 17 18 19 14 12 11 12 7 9 16 12 12 14 16 10 13 8 20 7
27 28 28 27 23 20 25 30 25 23 24 23 20 21 23 22 20 17 18 15 15 16 15 11 10 8 20 12 10 13 21 17 13 13 11 12 13 13 14 13 12 8 12 13 6 11 9
29 32 28 30 30 28 25 20 27 25 23 23 22 20 20 22 20 15 15 11 9 6 13 12 5 16 5 8 7 13 22 21 15 16 16 20 13 14 17 8 10 13 14 12 16 17 14
34 33 32 35 32 31 31 27 22 22 26 22 21 20 17 17 19 14 12 7 8 7 13 20 26 28 23 5 7 17 23 22 18 17 19 14 15 17 4 5 9 11 13 14 6 5 8
37 35 33 33 34 37 35 32 28 24 28 26 20 20 18 15 16 16 14 10 8 6 10 20 28 33 30 25 17 21 27 30 20 19 19 16 10 5 7 10 10 11 14 12 9 6 12
40 40 39 36 34 33 34 37 31 26 21 29 24 19 18 13 13 13 15 11 11 6 7 15 9 11 29 26 18 28 30 30 16 20 19 16 14 8 11 11 11 13 14 11 10 10 9
41 39 37 37 38 38 34 31 33 31 26 20 31 22 18 16 7 9 2 10 8 4 7 4 14 4 11 25 7 31 30 33 24 17 14 17 15 11 15 15 12 12 1 7 12 14 15
40 40 40 39 39 37 38 34 30 31 30 25 23 25 20 19 21 16 6 7 9 8 16 7 10 11 13 26 21 12 35 35 26 19 17 18 14 13 16 7 7 8 7 10 11 11 11
40 41 42 41 40 38 37 35 34 30 29 25 23 30 24 19 20 11 8 10 8 15 5 13 9 13 17 14 22 18 28 26 21 21 21 19 15 14 7 11 9 10 13 8 6 8 10
41 41 42 43 41 39 38 36 34 33 29 26 26 23 28 24 20 18 10 8 17 21 30 3 6 13 16 16 22 21 24 24 24 24 14 16 18 21 14 16 11 16 16 6 6 6 4
44 45 43 42 44 42 39 38 35 34 30 27 25 22 32 29 24 24 11 13 26 28 18 29 8 12 16 15 17 23 25 26 28 26 22 18 21 17 19 16 15 13 14 16 11 7 6
46 46 45 45 44 44 41 39 36 34 33 28 27 23 33 29 25 24 6 8 29 30 27 13 27 15 17 17 17 24 24 26 27 29 22 9 13 13 12 10 13 14 9 10 8 4 10
46 45 45 45 45 45 44 41 39 36 34 30 30 14 21 30 26 18 9 16 24 38 28 27 20 25 14 12 21 18 19 9 23 26 22 19 13 10 11 14 16 11 11 10 9 12 4
44 42 40 45 47 45 45 44 40 40 37 37 33 8 20 34 14 9 18 33 27 29 43 22 18 21 27 14 18 19 20 19 11 18 25 23 11 11 17 18 20 9 17 18 10 13 9
36 39 41 44 43 51 47 47 45 44 45 45 20 15 20 37 13 15 28 38 36 26 27 25 20 21 10 11 13 21 19 16 13 19 23 21 13 12 15 11 10 12 15 15 16 11 11
41 41 40 41 41 46 50 47 50 48 50 52 18 8 14 38 40 26 33 37 34 36 26 31 23 21 17 17 11 8 19 6 13 15 28 23 17 20 14 18 15 19 17 16 14 9 12
44 44 44 44 45 44 49 54 57 52 52 58 23 10 19 15 23 31 29 23 29 32 33 26 23 27 20 14 15 11 11 6 3 11 6 16 22 20 21 19 16 17 23 21 20 18 17
46 47 48 49 49 49 48 50 49 53 58 54 14 14 33 16 33 30 29 33 33 30 29 25 24 29 22 21 15 11 10 6 7 9 14 17 15 21 22 19 19 18 18 18 20 18 17
50 53 53 52 51 52 54 52 49 55 66 31 29 38 32 24 25 22 26 34 38 33 36 38 27 17 22 19 5 5 7 12 1 8 12 13 13 16 16 17 19 16 17 18 18 17 15
43 44 49 57 51 52 54 56 57 56 66 37 47 42 20 14 17 25 31 33 33 32 30 34 36 21 29 13 4 2 4 4 2 8 10 7 14 11 9 2 13 10 14 20 21 20 18
41 41 39 44 51 52 53 55 60 60 57 39 49 39 23 11 21 22 27 27 34 39 22 31 30 27 14 9 2 8 5 3 9 13 14 10 10 8 8 13 13 18 9 12 15 16 16
34 38 43 41 44 48 51 54 60 58 59 50 40 48 32 14 15 34 20 28 21 19 21 29 36 16 14 7 6 14 11 11 9 7 12 14 12 10 6 14 18 14 15 14 14 14 15
23 25 33 40 42 46 52 54 57 53 59 53 36 43 35 18 22 17 14 19 34 26 16 23 33 16 18 7 9 13 11 13 11 11 7 6 7 13 12 8 8 10 15 16 12 16 14
14 22 24 39 42 45 51 55 55 53 53 50 37 46 33 16 10 12 16 26 26 34 15 17 22 12 10 10 9 10 7 11 10 13 18 12 7 6 10 11 15 4 10 15 16 22 11
11 18 23 27 43 48 56 51 48 54 62 45 32 42 32 10 6 4 5 18 17 25 29 26 28 26 14 10 7 8 5 2 9 9 16 15 8 8 9 6 6 14 18 22 24 16 10
Wind_Direction
272 279 282 276 277 275 275 272 273 274 271 271 275 278 274 274 276 279 282 283 285 287 292 298 305 320 326 272 268 268 242 238 226 209 218 223 232 239 261 249 252 247 264 287 271 244 264
263 261 265 276 279 277 276 273 271 270 273 274 274 276 279 278 277 276 279 285 284 279 285 292 302 314 310 270 256 263 235 233 211 203 221 224 235 258 288 281 277 322 282 276 250 238 232
278 274 259 258 265 274 275 274 271 271 269 271 273 273 275 278 281 286 292 288 285 280 280 285 297 311 282 253 262 242 214 205 202 210 221 217 243 253 286 255 259 277 272 262 328 193 215
291 283 271 264 254 258 266 272 272 271 271 267 267 268 270 273 281 290 293 292 288 280 279 282 294 301 263 268 236 211 199 213 207 208 210 221 238 260 268 282 266 253 254 252 203 281 192
291 293 292 285 268 255 255 261 268 271 272 269 267 266 266 269 275 284 293 295 294 285 283 282 296 258 267 245 241 218 200 203 212 208 206 224 237 249 250 246 252 232 253 277 211 231 192
265 277 284 286 284 279 270 253 254 265 269 271 269 268 267 268 271 279 289 302 302 290 285 274 251 258 243 248 228 200 200 195 194 191 207 223 230 239 227 246 257 290 245 222 111 287 227
275 260 259 272 276 276 275 277 256 252 266 270 270 271 267 266 266 272 283 320 283 237 219 228 278 231 304 227 214 198 190 193 201 195 212 205 226 235 246 245 307 308 298 287 113 214 253
275 271 267 258 258 265 269 271 271 257 253 261 267 269 270 270 261 255 260 249 285 290 290 255 254 249 241 252 240 208 184 191 198 209 217 217 230 253 275 275 252 247 255 260 189 162 247
279 277 274 271 265 257 259 264 266 266 243 255 255 262 270 272 269 246 236 239 268 293 263 278 245 236 232 227 230 213 195 199 196 212 217 227 235 207 215 212 240 237 258 263 283 228 225
275 272 271 270 267 267 265 257 257 260 260 241 254 249 257 265 277 244 243 254 240 231 272 257 211 234 219 215 227 223 204 203 211 215 223 228 237 201 217 242 245 251 217 274 288 263 266
274 271 269 268 264 264 261 260 252 251 249 250 244 244 239 240 264 203 310 202 201 203 279 49 150 157 197 196 166 205 205 208 215 210 217 221 229 212 239 250 238 261 17 256 260 262 281
271 269 267 265 262 260 256 257 253 249 248 241 251 235 227 235 237 186 158 179 161 230 239 197 158 191 196 208 224 192 199 209 218 216 225 236 207 220 230 203 242 245 222 239 251 252 253
270 266 264 262 260 258 255 249 249 246 242 238 241 235 226 219 221 223 193 214 213 227 212 220 192 187 205 188 214 206 192 198 203 208 213 219 202 212 242 219 190 219 230 238 238 230 241
270 266 262 259 256 254 252 248 242 239 240 231 232 239 231 223 215 201 231 218 223 226 230 57 199 186 208 199 205 186 195 198 210 205 202 210 213 209 184 236 222 206 235 213 249 244 227
269 264 260 256 253 251 248 244 240 235 230 224 224 229 225 220 212 211 243 213 219 223 205 230 209 217 207 205 202 196 206 203 202 202 218 202 222 198 209 211 232 244 217 236 270 239 274
269 265 260 254 249 246 243 240 235 230 223 216 213 221 227 209 210 211 216 252 236 239 245 223 226 213 210 206 199 201 203 208 208 211 216 221 219 186 174 227 229 253 234 219 232 243 240
267 260 257 252 246 242 239 236 231 223 216 210 207 218 221 203 199 209 215 222 239 240 238 228 235 245 237 209 209 207 209 216 206 200 219 225 224 169 163 207 202 197 237 221 230 244 269
264 257 255 254 241 240 236 230 227 219 209 202 198 212 189 188 190 194 219 212 234 233 252 244 245 265 236 235 204 216 221 212 236 209 205 220 213 200 203 217 228 208 217 212 231 216 227
256 252 257 256 241 237 232 225 223 215 205 195 196 186 187 183 199 208 218 230 220 223 245 238 229 253 237 237 237 217 211 191 191 223 207 210 221 220 218 179 210 236 231 217 220 253 209
265 261 257 249 243 228 225 226 217 212 207 193 183 169 170 197 210 208 207 221 217 221 243 252 232 239 236 230 225 246 219 171 200 238 221 213 211 222 220 217 207 214 237 226 229 224 242
269 263 257 250 245 237 229 221 211 209 209 192 184 187 180 190 209 217 217 217 215 210 219 229 256 232 224 216 205 212 227 140 179 223 235 227 216 222 227 247 241 219 211 224 236 231 238
267 263 258 251 244 238 232 228 209 209 205 192 177 192 184 186 201 213 217 218 220 214 210 214 233 242 228 229 215 196 175 150 181 201 222 212 220 230 237 235 251 251 242 236 235 232 249
267 262 257 248 241 233 225 222 217 210 199 195 189 201 184 213 192 209 214 218 219 209 219 216 217 237 241 240 118 74 39 114 280 307 215 216 219 221 235 225 231 237 241 245 247 252 246
266 260 252 245 230 225 221 216 213 212 203 198 188 190 194 197 195 208 211 215 219 219 216 211 211 223 230 238 303 238 33 122 174 285 280 232 225 232 218 254 235 237 239 235 240 254 245
269 258 245 231 223 219 216 214 208 210 208 202 188 194 197 204 195 207 214 219 217 225 226 215 209 218 193 175 237 246 194 109 220 244 265 241 253 225 221 221 241 234 220 227 243 248 239
277 251 231 226 219 211 211 209 202 205 202 203 188 190 198 197 211 208 206 209 213 211 208 227 210 207 153 211 210 236 222 224 184 182 236 276 247 231 186 230 230 235 242 221 250 251 251
282 245 229 209 205 203 200 203 196 199 195 192 184 187 192 207 218 213 206 214 209 203 210 213 202 180 194 184 223 242 224 233 212 201 182 217 219 230 224 235 242 227 228 223 205 251 263
290 191 198 199 197 196 192 193 192 192 191 179 186 183 187 191 206 215 206 208 211 200 207 199 196 183 192 199 205 221 243 222 225 209 179 183 205 194 234 232 233 140 155 203 224 248 249
131 151 161 172 184 178 180 183 184 182 184 168 163 181 181 194 200 166 174 204 206 212 200 206 202 194 191 198 199 214 217 256 223 225 207 214 199 219 211 233 213 196 219 225 247 276 236
Height
1528 1528 1527 1526 1526 1525 1525 1525 1525 1525 1525 1525 1525 1524 1524 1524 1523 1523 1521 1519 1520 1519 1518 1516 1514 1512 1510 1511 1503 1500 1501 1501 1501 1502 1504 1504 1502 1499 1491 1486 1486 1484 1481 1479 1478 1479 1480
1522 1522 1522 1522 1521 1521 1520 1520 1521 1520 1521 1521 1521 1521 1520 1520 1519 1518 1517 1516 1516 1515 1514 1514 1512 1511 1512 1508 1498 1497 1498 1499 1499 1501 1502 1502 1499 1496 1493 1487 1484 1480 1480 1476 1477 1475 1477
1516 1516 1516 1516 1516 1517 1517 1517 1516 1516 1516 1516 1517 1517 1517 1517 1516 1516 1515 1513 1512 1512 1511 1511 1511 1509 1508 1498 1494 1496 1495 1498 1500 1500 1500 1500 1499 1498 1491 1487 1484 1483 1478 1472 1476 1474 1471
1510 1510 1510 1509 1510 1511 1512 1512 1512 1512 1511 1511 1512 1512 1512 1513 1513 1513 1511 1510 1509 1508 1506 1507 1508 1507 1499 1493 1491 1490 1493 1497 1498 1498 1498 1499 1499 1497 1493 1487 1484 1479 1472 1472 1498 1486 1470
1504 1504 1505 1504 1504 1504 1506 1506 1507 1508 1507 1506 1507 1508 1508 1509 1509 1510 1509 1507 1506 1505 1503 1503 1506 1506 1494 1485 1484 1485 1490 1493 1495 1497 1497 1497 1498 1494 1488 1486 1479 1469 1475 1478 1479 1466 1468
1498 1499 1498 1499 1499 1499 1499 1500 1500 1502 1503 1503 1502 1503 1503 1504 1505 1506 1506 1506 1504 1501 1499 1499 1502 1508 1486 1482 1481 1482 1487 1490 1493 1494 1496 1496 1494 1488 1482 1476 1479 1467 1470 1460 1471 1485 1468
1490 1491 1492 1493 1494 1493 1495 1493 1494 1496 1498 1498 1499 1500 1498 1500 1502 1503 1503 1506 1505 1501 1498 1491 1488 1485 1482 1482 1480 1481 1484 1489 1488 1491 1489 1487 1485 1481 1469 1465 1467 1468 1464 1461 1472 1478 1468
1482 1481 1482 1485 1486 1487 1488 1489 1489 1490 1493 1494 1496 1496 1495 1495 1497 1499 1500 1504 1502 1501 1492 1485 1483 1482 1480 1481 1477 1478 1481 1485 1483 1481 1481 1479 1480 1470 1467 1472 1474 1471 1469 1463 1454 1460 1465
1472 1473 1474 1474 1476 1478 1481 1482 1483 1485 1486 1490 1491 1493 1493 1493 1493 1494 1497 1500 1500 1500 1492 1473 1469 1469 1472 1479 1473 1473 1476 1475 1474 1476 1472 1473 1466 1467 1473 1473 1475 1470 1468 1461 1461 1461 1461
1462 1462 1463 1464 1468 1470 1472 1474 1476 1479 1482 1483 1487 1489 1491 1492 1495 1492 1496 1496 1499 1499 1485 1458 1456 1455 1462 1469 1465 1466 1470 1472 1467 1468 1467 1468 1464 1469 1472 1472 1467 1470 1459 1463 1465 1465 1466
1451 1451 1452 1454 1457 1460 1463 1466 1469 1473 1476 1479 1481 1485 1485 1490 1489 1491 1493 1494 1497 1500 1482 1438 1445 1452 1453 1456 1444 1455 1462 1466 1461 1462 1464 1465 1464 1467 1471 1467 1464 1467 1464 1466 1464 1462 1457
1440 1441 1442 1444 1447 1450 1453 1457 1461 1465 1469 1473 1475 1478 1483 1485 1487 1485 1490 1494 1497 1491 1465 1436 1440 1446 1450 1451 1443 1443 1455 1460 1459 1459 1460 1458 1459 1460 1461 1461 1464 1462 1467 1467 1464 1462 1472
1429 1430 1431 1433 1436 1439 1443 1447 1453 1457 1461 1466 1470 1473 1477 1481 1480 1487 1487 1491 1485 1469 1435 1429 1433 1437 1440 1439 1443 1441 1446 1450 1451 1461 1460 1459 1457 1459 1461 1464 1463 1465 1467 1478 1485 1472 1472
1416 1418 1419 1422 1425 1428 1432 1437 1443 1449 1454 1460 1465 1467 1470 1474 1479 1482 1484 1486 1463 1429 1432 1424 1425 1430 1434 1431 1437 1437 1441 1446 1447 1444 1448 1458 1463 1454 1455 1458 1455 1461 1460 1473 1488 1480 1464
1402 1404 1407 1410 1413 1417 1421 1427 1433 1440 1447 1454 1460 1460 1461 1467 1474 1479 1484 1470 1435 1422 1417 1427 1426 1429 1428 1427 1429 1432 1434 1436 1437 1435 1444 1445 1448 1437 1446 1452 1454 1453 1460 1449 1463 1465 1471
1388 1389 1392 1396 1400 1404 1410 1416 1423 1431 1439 1448 1452 1455 1453 1460 1470 1475 1477 1465 1437 1431 1425 1424 1425 1421 1420 1425 1425 1423 1428 1424 1429 1431 1431 1433 1446 1438 1445 1450 1450 1451 1448 1462 1459 1484 1481
1371 1374 1376 1380 1385 1391 1397 1404 1412 1421 1430 1441 1447 1448 1446 1455 1465 1468 1459 1445 1435 1432 1424 1423 1422 1420 1415 1413 1418 1419 1416 1419 1420 1426 1431 1431 1439 1443 1445 1450 1445 1454 1453 1450 1447 1453 1474
1355 1358 1361 1364 1370 1376 1383 1391 1400 1410 1421 1431 1436 1435 1439 1449 1458 1450 1450 1431 1433 1429 1429 1421 1420 1416 1412 1413 1416 1416 1418 1418 1421 1424 1431 1430 1435 1442 1445 1436 1437 1439 1443 1444 1457 1459 1454
1341 1343 1346 1350 1353 1360 1369 1377 1387 1396 1406 1418 1421 1429 1434 1439 1437 1432 1432 1426 1420 1427 1424 1421 1418 1417 1411 1412 1418 1413 1414 1418 1422 1424 1423 1428 1434 1445 1439 1440 1438 1438 1434 1435 1439 1442 1462
1327 1329 1332 1336 1341 1346 1352 1362 1372 1382 1392 1404 1411 1415 1424 1428 1424 1423 1412 1409 1417 1428 1426 1421 1421 1418 1415 1416 1414 1411 1410 1417 1419 1422 1422 1425 1427 1433 1436 1429 1429 1439 1434 1432 1437 1450 1452
1311 1313 1316 1321 1326 1333 1339 1344 1356 1368 1378 1388 1390 1390 1392 1401 1407 1400 1411 1408 1409 1416 1420 1422 1420 1413 1412 1413 1411 1416 1412 1416 1421 1423 1422 1424 1427 1425 1422 1419 1417 1419 1426 1429 1432 1433 1443
1293 1294 1298 1302 1308 1316 1325 1332 1340 1352 1366 1371 1372 1373 1385 1384 1400 1404 1403 1401 1400 1410 1412 1411 1416 1419 1410 1410 1408 1413 1414 1414 1420 1424 1422 1419 1424 1423 1423 1418 1417 1420 1417 1418 1418 1421 1424
1271 1272 1276 1281 1288 1297 1308 1318 1329 1340 1350 1347 1360 1374 1376 1381 1389 1397 1391 1389 1391 1402 1403 1407 1408 1415 1413 1409 1409 1417 1420 1418 1426 1426 1420 1418 1420 1421 1427 1415 1416 1426 1419 1417 1416 1416 1418
1249 1249 1251 1257 1267 1278 1290 1302 1314 1326 1333 1339 1350 1363 1370 1366 1381 1375 1382 1388 1390 1392 1396 1402 1407 1409 1419 1415 1418 1420 1424 1420 1424 1427 1426 1420 1419 1418 1426 1437 1439 1415 1410 1411 1414 1413 1410
1230 1229 1232 1238 1248 1260 1274 1287 1301 1315 1328 1334 1345 1355 1360 1365 1368 1376 1381 1384 1390 1395 1395 1399 1402 1408 1415 1421 1430 1426 1424 1429 1427 1429 1427 1422 1419 1423 1427 1425 1416 1406 1409 1410 1411 1410 1405
1210 1209 1215 1223 1234 1246 1260 1275 1290 1307 1323 1334 1340 1352 1360 1363 1359 1368 1373 1379 1383 1387 1397 1400 1403 1408 1412 1423 1426 1419 1411 1409 1418 1428 1423 1422 1419 1422 1422 1423 1424 1407 1402 1403 1403 1411 1401
1197 1195 1199 1210 1223 1237 1253 1268 1284 1300 1315 1328 1334 1349 1357 1359 1362 1367 1371 1373 1380 1385 1391 1397 1396 1404 1410 1413 1422 1414 1404 1397 1408 1414 1430 1428 1424 1422 1419 1415 1401 1392 1395 1395 1416 1408 1396
1181 1185 1193 1204 1218 1232 1247 1264 1281 1296 1312 1323 1331 1344 1352 1359 1362 1366 1369 1374 1375 1379 1384 1390 1394 1397 1409 1415 1410 1409 1402 1396 1400 1396 1403 1419 1419 1421 1415 1413 1416 1393 1395 1399 1394 1394 1396
1190 1192 1197 1204 1216 1232 1247 1264 1280 1296 1310 1322 1332 1344 1353 1363 1365 1367 1370 1373 1377 1378 1380 1386 1388 1391 1392 1397 1396 1399 1402 1402 1396 1398 1387 1400 1395 1402 1397 1393 1390 1392 1390 1391 1391 1390 1392